,,PA_Meas_PMT16A,,PR_Meas_QMR101_102,,RH_Meas_QMH101,,SR_Meas_QMS101,,TA_Meas_QMH101,,GenWind,,GenWind,
time,status,PA,status,PR,status,RH,status,SR,status,TA,status,DirAvg,status,SpdAvg,
2012-08-16, 00:00:04,VALID,917.564,VALID,0,VALID,97.4882,VALID,0,VALID,19.4718,VALID,111,VALID,0,
2012-08-16, 00:01:04,VALID,917.577,VALID,0,VALID,97.4806,VALID,0,VALID,19.4718,VALID,111,VALID,0,
2012-08-16, 00:02:04,VALID,917.57,VALID,0,VALID,97.4882,VALID,0,VALID,19.4718,VALID,111,VALID,0,
2012-08-16, 00:03:04,VALID,917.568,VALID,0,VALID,97.4806,VALID,0,VALID,19.4732,VALID,111,VALID,0,
2012-08-16, 00:04:04,VALID,917.57,VALID,0,VALID,97.4959,VALID,0,VALID,19.4327,VALID,111,VALID,0,
2012-08-16, 00:05:04,VALID,917.546,VALID,0,VALID,97.5035,VALID,0,VALID,19.4327,VALID,116,VALID,0,
2012-08-16, 00:06:04,VALID,917.518,VALID,0,VALID,97.5111,VALID,0,VALID,19.4537,VALID,123,VALID,0,
2012-08-16, 00:07:04,VALID,917.478,VALID,0,VALID,97.4882,VALID,0,VALID,19.4523,VALID,132,VALID,0,
2012-08-16, 00:08:04,VALID,917.419,VALID,0,VALID,97.4959,VALID,0,VALID,19.4523,VALID,124,VALID,0,
2012-08-16, 00:09:04,VALID,917.443,VALID,0,VALID,97.5035,VALID,0,VALID,19.4718,VALID,120,VALID,0,
2012-08-16, 00:10:04,VALID,917.441,VALID,0,VALID,97.4959,VALID,0,VALID,19.4718,VALID,121,VALID,0,
2012-08-16, 00:11:04,VALID,917.394,VALID,0,VALID,97.4959,VALID,0,VALID,19.4718,VALID,138,VALID,0,
2012-08-16, 00:12:04,VALID,917.41,VALID,0,VALID,97.4959,VALID,0,VALID,19.4718,VALID,126,VALID,0,
2012-08-16, 00:13:04,VALID,917.423,VALID,0,VALID,97.473,VALID,0,VALID,19.4523,VALID,132,VALID,0,
2012-08-16, 00:14:04,VALID,917.422,VALID,0,VALID,97.4806,VALID,0,VALID,19.4523,VALID,117,VALID,0,
2012-08-16, 00:15:04,VALID,917.448,VALID,0,VALID,97.473,VALID,0,VALID,19.4718,VALID,132,VALID,0,
2012-08-16, 00:16:04,VALID,917.421,VALID,0,VALID,97.4882,VALID,0,VALID,19.4718,VALID,110,VALID,0,
2012-08-16, 00:17:04,VALID,917.392,VALID,0,VALID,97.4806,VALID,0,VALID,19.4718,VALID,129,VALID,0,
2012-08-16, 00:18:04,VALID,917.373,VALID,0,VALID,97.5035,VALID,0,VALID,19.4703,VALID,136,VALID,0,
2012-08-16, 00:19:04,VALID,917.332,VALID,0,VALID,97.4959,VALID,0,VALID,19.4703,VALID,131,VALID,0,
2012-08-16, 00:20:04,VALID,917.292,VALID,0,VALID,97.4959,VALID,0.107441,VALID,19.4913,VALID,134,VALID,0,
2012-08-16, 00:21:04,VALID,917.247,VALID,0,VALID,97.5264,VALID,0.107441,VALID,19.4508,VALID,127,VALID,0,
2012-08-16, 00:22:04,VALID,917.224,VALID,0,VALID,97.4959,VALID,0,VALID,19.4703,VALID,130,VALID,0,
2012-08-16, 00:23:04,VALID,917.198,VALID,0,VALID,97.4959,VALID,0,VALID,19.4703,VALID,133,VALID,0,
2012-08-16, 00:24:04,VALID,917.188,VALID,0,VALID,97.5035,VALID,0,VALID,19.4898,VALID,134,VALID,0,
2012-08-16, 00:25:04,VALID,917.165,VALID,0,VALID,97.4882,VALID,0,VALID,19.4898,VALID,134,VALID,0,
2012-08-16, 00:26:04,VALID,917.177,VALID,0,VALID,97.4882,VALID,0,VALID,19.5093,VALID,134,VALID,0,
2012-08-16, 00:27:04,VALID,917.163,VALID,0,VALID,97.5035,VALID,0.107441,VALID,19.5093,VALID,134,VALID,0,
2012-08-16, 00:28:04,VALID,917.156,VALID,0,VALID,97.4806,VALID,0,VALID,19.5498,VALID,134,VALID,0,
2012-08-16, 00:29:04,VALID,917.132,VALID,0,VALID,97.4959,VALID,0,VALID,19.5483,VALID,134,VALID,0,
2012-08-16, 00:30:04,VALID,917.13,VALID,0,VALID,97.4806,VALID,0,VALID,19.5483,VALID,134,VALID,0,
2012-08-16, 00:31:04,VALID,917.146,VALID,0,VALID,97.4577,VALID,0,VALID,19.5678,VALID,134,VALID,0,
2012-08-16, 00:32:04,VALID,917.131,VALID,0,VALID,97.4959,VALID,0,VALID,19.5678,VALID,134,VALID,0,
2012-08-16, 00:33:04,VALID,917.149,VALID,0,VALID,97.4654,VALID,0,VALID,19.5693,VALID,134,VALID,0,
2012-08-16, 00:34:04,VALID,917.138,VALID,0,VALID,97.4806,VALID,0,VALID,19.5498,VALID,134,VALID,0,
2012-08-16, 00:35:04,VALID,917.074,VALID,0,VALID,97.473,VALID,0,VALID,19.5498,VALID,134,VALID,0,
2012-08-16, 00:36:04,VALID,917.075,VALID,0,VALID,97.4654,VALID,0,VALID,19.5498,VALID,134,VALID,0,
2012-08-16, 00:37:04,VALID,917.056,VALID,0,VALID,97.4882,VALID,0,VALID,19.5693,VALID,127,VALID,0,
2012-08-16, 00:38:04,VALID,917.019,VALID,0,VALID,97.4654,VALID,0,VALID,19.5693,VALID,127,VALID,0,
2012-08-16, 00:39:04,VALID,917.035,VALID,0,VALID,97.4806,VALID,0,VALID,19.5888,VALID,127,VALID,0,
2012-08-16, 00:40:04,VALID,917.044,VALID,0,VALID,97.4501,VALID,0,VALID,19.6083,VALID,127,VALID,0,
2012-08-16, 00:41:04,VALID,916.98,VALID,0,VALID,97.4577,VALID,0,VALID,19.6293,VALID,127,VALID,0,
2012-08-16, 00:42:04,VALID,916.983,VALID,0,VALID,97.4577,VALID,0,VALID,19.6293,VALID,127,VALID,0,
2012-08-16, 00:43:04,VALID,917.004,VALID,0,VALID,97.4577,VALID,0,VALID,19.6098,VALID,129,VALID,0,
2012-08-16, 00:44:04,VALID,916.987,VALID,0,VALID,97.4501,VALID,0,VALID,19.6293,VALID,129,VALID,0,
2012-08-16, 00:45:04,VALID,916.989,VALID,0,VALID,97.4501,VALID,0,VALID,19.6278,VALID,129,VALID,0,
2012-08-16, 00:46:04,VALID,916.991,VALID,0,VALID,97.4425,VALID,0,VALID,19.6293,VALID,129,VALID,0,
2012-08-16, 00:47:04,VALID,916.943,VALID,0,VALID,97.4577,VALID,0,VALID,19.6083,VALID,129,VALID,0,
2012-08-16, 00:48:04,VALID,916.953,VALID,0,VALID,97.4654,VALID,0,VALID,19.6068,VALID,129,VALID,0,
2012-08-16, 00:49:04,VALID,916.959,VALID,0,VALID,97.4654,VALID,0.107441,VALID,19.6278,VALID,129,VALID,0,
2012-08-16, 00:50:04,VALID,916.931,VALID,0,VALID,97.4425,VALID,0.107441,VALID,19.6068,VALID,130,VALID,0,
2012-08-16, 00:51:04,VALID,916.931,VALID,0,VALID,97.4577,VALID,0,VALID,19.6278,VALID,129,VALID,0,
2012-08-16, 00:52:04,VALID,916.953,VALID,0,VALID,97.4577,VALID,0,VALID,19.6278,VALID,129,VALID,0,
2012-08-16, 00:53:04,VALID,916.961,VALID,0,VALID,97.473,VALID,0,VALID,19.6263,VALID,131,VALID,0,
2012-08-16, 00:54:04,VALID,916.97,VALID,0,VALID,97.4577,VALID,0,VALID,19.6668,VALID,132,VALID,0,
2012-08-16, 00:55:04,VALID,916.969,VALID,0,VALID,97.4501,VALID,0.107441,VALID,19.6668,VALID,146,VALID,0,
2012-08-16, 00:56:04,VALID,916.948,VALID,0,VALID,97.4425,VALID,0,VALID,19.6668,VALID,136,VALID,0,
2012-08-16, 00:57:04,VALID,916.953,VALID,0,VALID,97.4577,VALID,0,VALID,19.6653,VALID,138,VALID,0,
2012-08-16, 00:58:04,VALID,916.95,VALID,0,VALID,97.4577,VALID,0,VALID,19.6863,VALID,146,VALID,0,
2012-08-16, 00:59:04,VALID,916.908,VALID,0,VALID,97.473,VALID,0,VALID,19.6848,VALID,133,VALID,0,
2012-08-16, 01:00:04,VALID,916.855,VALID,0,VALID,97.4577,VALID,0,VALID,19.7058,VALID,131,VALID,0,
2012-08-16, 01:01:04,VALID,916.832,VALID,0,VALID,97.4349,VALID,0,VALID,19.7043,VALID,132,VALID,0,
2012-08-16, 01:02:04,VALID,916.831,VALID,0,VALID,97.4349,VALID,0.107441,VALID,19.7448,VALID,137,VALID,0,
2012-08-16, 01:03:04,VALID,916.784,VALID,0,VALID,97.4349,VALID,0,VALID,19.7448,VALID,137,VALID,0,
2012-08-16, 01:04:04,VALID,916.789,VALID,0,VALID,97.4349,VALID,0,VALID,19.7643,VALID,137,VALID,0,
2012-08-16, 01:05:04,VALID,916.769,VALID,0,VALID,97.4273,VALID,0,VALID,19.8033,VALID,137,VALID,0,
2012-08-16, 01:06:04,VALID,916.74,VALID,0,VALID,97.4273,VALID,0,VALID,19.8033,VALID,146,VALID,0,
2012-08-16, 01:07:04,VALID,916.7,VALID,0,VALID,97.4196,VALID,0,VALID,19.8243,VALID,131,VALID,0,
2012-08-16, 01:08:04,VALID,916.697,VALID,0,VALID,97.4196,VALID,0,VALID,19.7838,VALID,131,VALID,0,
2012-08-16, 01:09:04,VALID,916.723,VALID,0,VALID,97.3968,VALID,0,VALID,19.8033,VALID,131,VALID,0,
2012-08-16, 01:10:04,VALID,916.734,VALID,0,VALID,97.3968,VALID,0,VALID,19.8228,VALID,135,VALID,0,
2012-08-16, 01:11:04,VALID,916.703,VALID,0,VALID,97.3891,VALID,0,VALID,19.8423,VALID,128,VALID,0,
2012-08-16, 01:12:04,VALID,916.701,VALID,0,VALID,97.3815,VALID,0,VALID,19.8813,VALID,135,VALID,0,
2012-08-16, 01:13:04,VALID,916.657,VALID,0,VALID,97.3586,VALID,0,VALID,19.8618,VALID,136,VALID,0,
2012-08-16, 01:14:04,VALID,916.658,VALID,0,VALID,97.3663,VALID,0,VALID,19.8828,VALID,120,VALID,0,
2012-08-16, 01:15:04,VALID,916.594,VALID,0,VALID,97.3739,VALID,0,VALID,19.8423,VALID,127,VALID,0,
2012-08-16, 01:16:04,VALID,916.602,VALID,0,VALID,97.3663,VALID,0,VALID,19.8423,VALID,127,VALID,0,
2012-08-16, 01:17:04,VALID,916.56,VALID,0,VALID,97.351,VALID,0,VALID,19.8438,VALID,126,VALID,0,
2012-08-16, 01:18:04,VALID,916.492,VALID,0,VALID,97.3358,VALID,0.107441,VALID,19.8213,VALID,128,VALID,0,
2012-08-16, 01:19:04,VALID,916.478,VALID,0,VALID,97.3358,VALID,0,VALID,19.8408,VALID,129,VALID,0,
2012-08-16, 01:20:04,VALID,916.448,VALID,0,VALID,97.3358,VALID,0,VALID,19.8408,VALID,126,VALID,0,
2012-08-16, 01:21:04,VALID,916.447,VALID,0,VALID,97.3053,VALID,0,VALID,19.8618,VALID,130,VALID,0,
2012-08-16, 01:22:04,VALID,916.435,VALID,0,VALID,97.2977,VALID,0,VALID,19.8813,VALID,127,VALID,0,
2012-08-16, 01:23:04,VALID,916.448,VALID,0,VALID,97.29,VALID,0,VALID,19.8603,VALID,128,VALID,0,
2012-08-16, 01:24:04,VALID,916.453,VALID,0,VALID,97.2748,VALID,0.107441,VALID,19.8798,VALID,129,VALID,0,
2012-08-16, 01:25:04,VALID,916.466,VALID,0,VALID,97.2748,VALID,0,VALID,19.8798,VALID,122,VALID,0,
2012-08-16, 01:26:04,VALID,916.42,VALID,0,VALID,97.2367,VALID,0,VALID,19.9008,VALID,123,VALID,0,
2012-08-16, 01:27:04,VALID,916.403,VALID,0,VALID,97.2214,VALID,0,VALID,19.8798,VALID,123,VALID,0,
2012-08-16, 01:28:04,VALID,916.379,VALID,0,VALID,97.2367,VALID,0,VALID,19.9008,VALID,128,VALID,0,
2012-08-16, 01:29:04,VALID,916.347,VALID,0,VALID,97.2214,VALID,0,VALID,19.8798,VALID,128,VALID,0,
2012-08-16, 01:30:04,VALID,916.342,VALID,0,VALID,97.1986,VALID,0,VALID,19.8618,VALID,142,VALID,0,
2012-08-16, 01:31:04,VALID,916.302,VALID,0,VALID,97.2062,VALID,0,VALID,19.8423,VALID,142,VALID,0,
2012-08-16, 01:32:04,VALID,916.305,VALID,0,VALID,97.2214,VALID,0,VALID,19.8213,VALID,142,VALID,0,
2012-08-16, 01:33:04,VALID,916.299,VALID,0,VALID,97.2062,VALID,0,VALID,19.8033,VALID,164,VALID,0,
2012-08-16, 01:34:04,VALID,916.31,VALID,0,VALID,97.2062,VALID,0,VALID,19.7838,VALID,164,VALID,0,
2012-08-16, 01:35:04,VALID,916.326,VALID,0,VALID,97.2214,VALID,0,VALID,19.7643,VALID,164,VALID,0,
2012-08-16, 01:36:04,VALID,916.313,VALID,0,VALID,97.2214,VALID,0,VALID,19.7838,VALID,166,VALID,0,
2012-08-16, 01:37:04,VALID,916.28,VALID,0,VALID,97.2214,VALID,0,VALID,19.7838,VALID,166,VALID,0,
2012-08-16, 01:38:04,VALID,916.228,VALID,0,VALID,97.2367,VALID,0,VALID,19.7643,VALID,165,VALID,0,
2012-08-16, 01:39:04,VALID,916.258,VALID,0,VALID,97.229,VALID,0,VALID,19.7448,VALID,165,VALID,0,
2012-08-16, 01:40:04,VALID,916.258,VALID,0,VALID,97.2367,VALID,0,VALID,19.7643,VALID,134,VALID,0,
2012-08-16, 01:41:04,VALID,916.233,VALID,0,VALID,97.2367,VALID,0,VALID,19.7838,VALID,129,VALID,0,
2012-08-16, 01:42:04,VALID,916.203,VALID,0,VALID,97.2443,VALID,0,VALID,19.7448,VALID,129,VALID,0,
2012-08-16, 01:43:04,VALID,916.203,VALID,0,VALID,97.2443,VALID,0,VALID,19.7658,VALID,120,VALID,0,
2012-08-16, 01:44:04,VALID,916.162,VALID,0,VALID,97.2519,VALID,0,VALID,19.7448,VALID,115,VALID,0,
2012-08-16, 01:45:04,VALID,916.144,VALID,0,VALID,97.2214,VALID,0,VALID,19.7658,VALID,117,VALID,0,
2012-08-16, 01:46:04,VALID,916.118,VALID,0,VALID,97.2519,VALID,0,VALID,19.7643,VALID,108,VALID,0,
2012-08-16, 01:47:04,VALID,916.106,VALID,0,VALID,97.2519,VALID,0,VALID,19.8048,VALID,120,VALID,0,
2012-08-16, 01:48:04,VALID,916.091,VALID,0,VALID,97.2672,VALID,0,VALID,19.8228,VALID,114,VALID,0,
2012-08-16, 01:49:04,VALID,916.068,VALID,0,VALID,97.2672,VALID,0,VALID,19.8033,VALID,113,VALID,0,
2012-08-16, 01:50:04,VALID,916.074,VALID,0,VALID,97.229,VALID,0,VALID,19.8228,VALID,111,VALID,0,
2012-08-16, 01:51:04,VALID,916.069,VALID,0,VALID,97.2367,VALID,0,VALID,19.8228,VALID,118,VALID,0,
2012-08-16, 01:52:04,VALID,916.051,VALID,0,VALID,97.2367,VALID,0,VALID,19.8423,VALID,120,VALID,0,
2012-08-16, 01:53:04,VALID,916.078,VALID,0,VALID,97.2519,VALID,0,VALID,19.8828,VALID,118,VALID,0,
2012-08-16, 01:54:04,VALID,916.099,VALID,0,VALID,97.1986,VALID,0,VALID,19.8423,VALID,99,VALID,0,
2012-08-16, 01:55:04,VALID,916.075,VALID,0,VALID,97.2367,VALID,0,VALID,19.8618,VALID,126,VALID,0,
2012-08-16, 01:56:04,VALID,916.081,VALID,0,VALID,97.2367,VALID,0,VALID,19.8633,VALID,126,VALID,0,
2012-08-16, 01:57:04,VALID,916.046,VALID,0,VALID,97.2367,VALID,0,VALID,19.8423,VALID,126,VALID,0,
2012-08-16, 01:58:04,VALID,916.06,VALID,0,VALID,97.2214,VALID,0,VALID,19.8618,VALID,126,VALID,0,
2012-08-16, 01:59:04,VALID,916.057,VALID,0,VALID,97.2367,VALID,0,VALID,19.8438,VALID,126,VALID,0,
2012-08-16, 02:00:04,VALID,916.079,VALID,0,VALID,97.229,VALID,0,VALID,19.8243,VALID,126,VALID,0,
2012-08-16, 02:01:04,VALID,916.061,VALID,0,VALID,97.2138,VALID,0,VALID,19.8033,VALID,126,VALID,0,
2012-08-16, 02:02:04,VALID,916.099,VALID,0,VALID,97.2214,VALID,0,VALID,19.8033,VALID,126,VALID,0,
2012-08-16, 02:03:04,VALID,916.093,VALID,0,VALID,97.229,VALID,0.107441,VALID,19.7823,VALID,126,VALID,0,
2012-08-16, 02:04:04,VALID,916.077,VALID,0,VALID,97.229,VALID,0,VALID,19.8018,VALID,126,VALID,0,
2012-08-16, 02:05:04,VALID,916.066,VALID,0,VALID,97.2062,VALID,0.107441,VALID,19.7823,VALID,126,VALID,0,
2012-08-16, 02:06:04,VALID,916.036,VALID,0,VALID,97.2062,VALID,0.107441,VALID,19.7823,VALID,126,VALID,0,
2012-08-16, 02:07:04,VALID,916.034,VALID,0,VALID,97.229,VALID,0.107441,VALID,19.7628,VALID,126,VALID,0,
2012-08-16, 02:08:04,VALID,916.044,VALID,0,VALID,97.2443,VALID,0.107441,VALID,19.7433,VALID,145,VALID,0,
2012-08-16, 02:09:04,VALID,916.039,VALID,0,VALID,97.2443,VALID,0,VALID,19.7238,VALID,144,VALID,0,
2012-08-16, 02:10:04,VALID,916.028,VALID,0,VALID,97.2519,VALID,0,VALID,19.7433,VALID,142,VALID,0,
2012-08-16, 02:11:04,VALID,916.002,VALID,0,VALID,97.2443,VALID,0.107441,VALID,19.7433,VALID,142,VALID,0,
2012-08-16, 02:12:04,VALID,915.979,VALID,0,VALID,97.2595,VALID,0.107441,VALID,19.7433,VALID,142,VALID,0,
2012-08-16, 02:13:04,VALID,915.996,VALID,0,VALID,97.2519,VALID,0.107441,VALID,19.7643,VALID,142,VALID,0,
2012-08-16, 02:14:04,VALID,915.97,VALID,0,VALID,97.2748,VALID,0.107441,VALID,19.7433,VALID,142,VALID,0,
2012-08-16, 02:15:04,VALID,915.981,VALID,0,VALID,97.2672,VALID,0.107441,VALID,19.7238,VALID,142,VALID,0,
2012-08-16, 02:16:04,VALID,916.011,VALID,0,VALID,97.2672,VALID,0.107441,VALID,19.7238,VALID,142,VALID,0,
2012-08-16, 02:17:04,VALID,915.995,VALID,0,VALID,97.2748,VALID,0.107441,VALID,19.6848,VALID,142,VALID,0,
2012-08-16, 02:18:04,VALID,915.982,VALID,0,VALID,97.2595,VALID,0.107441,VALID,19.6263,VALID,142,VALID,0,
2012-08-16, 02:19:04,VALID,916.004,VALID,0,VALID,97.2672,VALID,0,VALID,19.6068,VALID,142,VALID,0,
2012-08-16, 02:20:04,VALID,915.951,VALID,0,VALID,97.2672,VALID,0.107441,VALID,19.5678,VALID,142,VALID,0,
2012-08-16, 02:21:04,VALID,915.934,VALID,0,VALID,97.2977,VALID,0,VALID,19.5693,VALID,142,VALID,0,
2012-08-16, 02:22:04,VALID,915.904,VALID,0,VALID,97.2977,VALID,0,VALID,19.5483,VALID,142,VALID,0,
2012-08-16, 02:23:04,VALID,915.891,VALID,0,VALID,97.2824,VALID,0,VALID,19.5483,VALID,142,VALID,0,
2012-08-16, 02:24:04,VALID,915.894,VALID,0,VALID,97.29,VALID,0,VALID,19.5498,VALID,142,VALID,0,
2012-08-16, 02:25:04,VALID,915.859,VALID,0,VALID,97.3129,VALID,0,VALID,19.4898,VALID,142,VALID,0,
2012-08-16, 02:26:04,VALID,915.856,VALID,0,VALID,97.3281,VALID,0.107441,VALID,19.5093,VALID,142,VALID,0,
2012-08-16, 02:27:04,VALID,915.876,VALID,0,VALID,97.351,VALID,0.107441,VALID,19.5093,VALID,142,VALID,0,
2012-08-16, 02:28:04,VALID,915.876,VALID,0,VALID,97.3281,VALID,0.107441,VALID,19.4508,VALID,142,VALID,0,
2012-08-16, 02:29:04,VALID,915.835,VALID,0,VALID,97.3434,VALID,0.107441,VALID,19.4313,VALID,142,VALID,0,
2012-08-16, 02:30:04,VALID,915.879,VALID,0,VALID,97.3281,VALID,0.107441,VALID,19.4313,VALID,142,VALID,0,
2012-08-16, 02:31:04,VALID,915.821,VALID,0,VALID,97.3739,VALID,0.107441,VALID,19.4118,VALID,142,VALID,0,
2012-08-16, 02:32:04,VALID,915.802,VALID,0,VALID,97.3739,VALID,0.107441,VALID,19.3923,VALID,142,VALID,0,
2012-08-16, 02:33:04,VALID,915.802,VALID,0,VALID,97.3739,VALID,0,VALID,19.3937,VALID,142,VALID,0,
2012-08-16, 02:34:04,VALID,915.774,VALID,0,VALID,97.3815,VALID,0,VALID,19.4327,VALID,142,VALID,0,
2012-08-16, 02:35:04,VALID,915.728,VALID,0,VALID,97.3968,VALID,0,VALID,19.4718,VALID,141,VALID,0,
2012-08-16, 02:36:04,VALID,915.742,VALID,0,VALID,97.412,VALID,0,VALID,19.4718,VALID,128,VALID,0,
2012-08-16, 02:37:04,VALID,915.708,VALID,0,VALID,97.4425,VALID,0,VALID,19.5108,VALID,128,VALID,0,
2012-08-16, 02:38:04,VALID,915.698,VALID,0,VALID,97.4196,VALID,0,VALID,19.5108,VALID,128,VALID,0,
2012-08-16, 02:39:04,VALID,915.679,VALID,0,VALID,97.4196,VALID,0,VALID,19.5122,VALID,100,VALID,0,
2012-08-16, 02:40:04,VALID,915.673,VALID,0,VALID,97.412,VALID,0,VALID,19.4913,VALID,100,VALID,0,
2012-08-16, 02:41:04,VALID,915.65,VALID,0,VALID,97.4196,VALID,0,VALID,19.5108,VALID,99,VALID,0,
2012-08-16, 02:42:04,VALID,915.632,VALID,0,VALID,97.4273,VALID,0,VALID,19.5108,VALID,119,VALID,0,
2012-08-16, 02:43:04,VALID,915.613,VALID,0,VALID,97.3968,VALID,0,VALID,19.5317,VALID,119,VALID,0,
2012-08-16, 02:44:04,VALID,915.578,VALID,0,VALID,97.4349,VALID,0,VALID,19.4913,VALID,119,VALID,0,
2012-08-16, 02:45:04,VALID,915.579,VALID,0,VALID,97.412,VALID,0,VALID,19.4913,VALID,119,VALID,0,
2012-08-16, 02:46:04,VALID,915.571,VALID,0,VALID,97.3968,VALID,0,VALID,19.4913,VALID,130,VALID,0,
2012-08-16, 02:47:04,VALID,915.564,VALID,0,VALID,97.4044,VALID,0,VALID,19.4718,VALID,131,VALID,0,
2012-08-16, 02:48:04,VALID,915.537,VALID,0,VALID,97.3968,VALID,0.107441,VALID,19.4703,VALID,152,VALID,0,
2012-08-16, 02:49:04,VALID,915.519,VALID,0,VALID,97.4044,VALID,0.107441,VALID,19.5093,VALID,152,VALID,0,
2012-08-16, 02:50:04,VALID,915.501,VALID,0,VALID,97.4196,VALID,0.107441,VALID,19.5093,VALID,186,VALID,0,
2012-08-16, 02:51:04,VALID,915.484,VALID,0,VALID,97.3968,VALID,0.107441,VALID,19.5093,VALID,158,VALID,0,
2012-08-16, 02:52:04,VALID,915.47,VALID,0,VALID,97.4349,VALID,0,VALID,19.5093,VALID,154,VALID,0,
2012-08-16, 02:53:04,VALID,915.474,VALID,0,VALID,97.4273,VALID,0.107441,VALID,19.4913,VALID,173,VALID,0,
2012-08-16, 02:54:04,VALID,915.477,VALID,0,VALID,97.4349,VALID,0.107441,VALID,19.4508,VALID,159,VALID,0,
2012-08-16, 02:55:04,VALID,915.487,VALID,0,VALID,97.4349,VALID,0.107441,VALID,19.4313,VALID,159,VALID,0,
2012-08-16, 02:56:04,VALID,915.459,VALID,0,VALID,97.4273,VALID,0,VALID,19.4132,VALID,137,VALID,0,
2012-08-16, 02:57:04,VALID,915.465,VALID,0,VALID,97.4349,VALID,0.107441,VALID,19.4118,VALID,116,VALID,0,
2012-08-16, 02:58:04,VALID,915.438,VALID,0,VALID,97.4425,VALID,0.107441,VALID,19.4313,VALID,116,VALID,0,
2012-08-16, 02:59:04,VALID,915.453,VALID,0,VALID,97.4654,VALID,0,VALID,19.4327,VALID,116,VALID,0,
2012-08-16, 03:00:04,VALID,915.439,VALID,0,VALID,97.4501,VALID,0.107441,VALID,19.4508,VALID,116,VALID,0,
2012-08-16, 03:01:04,VALID,915.432,VALID,0,VALID,97.4577,VALID,0.107441,VALID,19.4898,VALID,127,VALID,0,
2012-08-16, 03:02:04,VALID,915.425,VALID,0,VALID,97.4501,VALID,0.107441,VALID,19.5303,VALID,131,VALID,0,
2012-08-16, 03:03:04,VALID,915.392,VALID,0,VALID,97.4654,VALID,0,VALID,19.5678,VALID,136,VALID,0,
2012-08-16, 03:04:04,VALID,915.362,VALID,0,VALID,97.4577,VALID,0.107441,VALID,19.5888,VALID,127,VALID,0,
2012-08-16, 03:05:04,VALID,915.35,VALID,0,VALID,97.4425,VALID,0.107441,VALID,19.5873,VALID,138,VALID,0,
2012-08-16, 03:06:04,VALID,915.322,VALID,0,VALID,97.4273,VALID,0.107441,VALID,19.6068,VALID,128,VALID,0,
2012-08-16, 03:07:04,VALID,915.315,VALID,0,VALID,97.4273,VALID,0.107441,VALID,19.5873,VALID,153,VALID,0,
2012-08-16, 03:08:04,VALID,915.279,VALID,0,VALID,97.3968,VALID,0.107441,VALID,19.5678,VALID,156,VALID,0,
2012-08-16, 03:09:04,VALID,915.277,VALID,0,VALID,97.3968,VALID,0,VALID,19.5483,VALID,159,VALID,0,
2012-08-16, 03:10:04,VALID,915.282,VALID,0,VALID,97.3968,VALID,0,VALID,19.4898,VALID,169,VALID,0,
2012-08-16, 03:11:04,VALID,915.273,VALID,0,VALID,97.4196,VALID,0,VALID,19.4913,VALID,170,VALID,0,
2012-08-16, 03:12:04,VALID,915.244,VALID,0,VALID,97.4044,VALID,0,VALID,19.4118,VALID,167,VALID,0,
2012-08-16, 03:13:04,VALID,915.253,VALID,0,VALID,97.3968,VALID,0.107441,VALID,19.4327,VALID,157,VALID,0,
2012-08-16, 03:14:04,VALID,915.224,VALID,0,VALID,97.4196,VALID,0,VALID,19.3923,VALID,165,VALID,0,
2012-08-16, 03:15:04,VALID,915.221,VALID,0,VALID,97.4349,VALID,0,VALID,19.3533,VALID,132,VALID,0,
2012-08-16, 03:16:04,VALID,915.204,VALID,0,VALID,97.4273,VALID,0.107441,VALID,19.4132,VALID,138,VALID,0,
2012-08-16, 03:17:04,VALID,915.199,VALID,0,VALID,97.4425,VALID,0,VALID,19.3923,VALID,129,VALID,0,
2012-08-16, 03:18:04,VALID,915.18,VALID,0,VALID,97.4577,VALID,0,VALID,19.3923,VALID,142,VALID,0,
2012-08-16, 03:19:04,VALID,915.183,VALID,0,VALID,97.4501,VALID,0,VALID,19.3923,VALID,132,VALID,0.215234,
2012-08-16, 03:20:04,VALID,915.175,VALID,0,VALID,97.4577,VALID,0.107441,VALID,19.4118,VALID,133,VALID,0,
2012-08-16, 03:21:04,VALID,915.187,VALID,0,VALID,97.4577,VALID,0,VALID,19.4523,VALID,132,VALID,0,
2012-08-16, 03:22:04,VALID,915.19,VALID,0,VALID,97.4349,VALID,0.107441,VALID,19.4313,VALID,129,VALID,0,
2012-08-16, 03:23:04,VALID,915.233,VALID,0,VALID,97.4349,VALID,0,VALID,19.4327,VALID,126,VALID,0,
2012-08-16, 03:24:04,VALID,915.235,VALID,0,VALID,97.4349,VALID,0,VALID,19.4313,VALID,123,VALID,0,
2012-08-16, 03:25:04,VALID,915.215,VALID,0,VALID,97.4425,VALID,0,VALID,19.4718,VALID,130,VALID,0,
2012-08-16, 03:26:04,VALID,915.233,VALID,0,VALID,97.4501,VALID,0,VALID,19.4313,VALID,132,VALID,0,
2012-08-16, 03:27:04,VALID,915.244,VALID,0,VALID,97.4196,VALID,0,VALID,19.4508,VALID,134,VALID,0,
2012-08-16, 03:28:04,VALID,915.257,VALID,0,VALID,97.4273,VALID,0.107441,VALID,19.4508,VALID,161,VALID,0,
2012-08-16, 03:29:04,VALID,915.258,VALID,0,VALID,97.4044,VALID,0,VALID,19.4313,VALID,138,VALID,0,
2012-08-16, 03:30:04,VALID,915.31,VALID,0,VALID,97.4044,VALID,0.107441,VALID,19.4313,VALID,147,VALID,0,
2012-08-16, 03:31:04,VALID,915.32,VALID,0,VALID,97.4196,VALID,0,VALID,19.4313,VALID,154,VALID,0,
2012-08-16, 03:32:04,VALID,915.323,VALID,0,VALID,97.412,VALID,0.107441,VALID,19.4118,VALID,172,VALID,0,
2012-08-16, 03:33:04,VALID,915.33,VALID,0,VALID,97.412,VALID,0,VALID,19.4327,VALID,171,VALID,0,
2012-08-16, 03:34:04,VALID,915.327,VALID,0,VALID,97.3968,VALID,0,VALID,19.4147,VALID,172,VALID,0,
2012-08-16, 03:35:04,VALID,915.343,VALID,0,VALID,97.412,VALID,0,VALID,19.3742,VALID,161,VALID,0,
2012-08-16, 03:36:04,VALID,915.336,VALID,0,VALID,97.412,VALID,0,VALID,19.3937,VALID,176,VALID,0,
2012-08-16, 03:37:04,VALID,915.293,VALID,0,VALID,97.412,VALID,0,VALID,19.3937,VALID,171,VALID,0,
2012-08-16, 03:38:04,VALID,915.279,VALID,0,VALID,97.412,VALID,0,VALID,19.3937,VALID,168,VALID,0,
2012-08-16, 03:39:04,VALID,915.272,VALID,0,VALID,97.4044,VALID,0,VALID,19.3937,VALID,162,VALID,0,
2012-08-16, 03:40:04,VALID,915.28,VALID,0,VALID,97.4349,VALID,0,VALID,19.3742,VALID,161,VALID,0,
2012-08-16, 03:41:04,VALID,915.319,VALID,0,VALID,97.412,VALID,0,VALID,19.3757,VALID,145,VALID,0,
2012-08-16, 03:42:04,VALID,915.318,VALID,0,VALID,97.412,VALID,0,VALID,19.3757,VALID,128,VALID,0,
2012-08-16, 03:43:04,VALID,915.301,VALID,0,VALID,97.4273,VALID,0,VALID,19.4132,VALID,135,VALID,0,
2012-08-16, 03:44:04,VALID,915.372,VALID,0,VALID,97.412,VALID,0,VALID,19.4327,VALID,146,VALID,0,
2012-08-16, 03:45:04,VALID,915.364,VALID,0,VALID,97.4196,VALID,0,VALID,19.4732,VALID,125,VALID,0,
2012-08-16, 03:46:04,VALID,915.381,VALID,0,VALID,97.412,VALID,0,VALID,19.4927,VALID,134,VALID,0,
2012-08-16, 03:47:04,VALID,915.379,VALID,0,VALID,97.412,VALID,0,VALID,19.4913,VALID,123,VALID,0,
2012-08-16, 03:48:04,VALID,915.398,VALID,0,VALID,97.412,VALID,0,VALID,19.5303,VALID,122,VALID,0,
2012-08-16, 03:49:04,VALID,915.391,VALID,0,VALID,97.3586,VALID,0.107441,VALID,19.5678,VALID,113,VALID,0,
2012-08-16, 03:50:04,VALID,915.376,VALID,0,VALID,97.3663,VALID,0.107441,VALID,19.5873,VALID,119,VALID,0,
2012-08-16, 03:51:04,VALID,915.369,VALID,0,VALID,97.351,VALID,0.107441,VALID,19.6278,VALID,132,VALID,0,
2012-08-16, 03:52:04,VALID,915.359,VALID,0,VALID,97.3205,VALID,0.107441,VALID,19.6458,VALID,131,VALID,0,
2012-08-16, 03:53:04,VALID,915.317,VALID,0,VALID,97.29,VALID,0.107441,VALID,19.7043,VALID,134,VALID,0,
2012-08-16, 03:54:04,VALID,915.291,VALID,0,VALID,97.2595,VALID,0,VALID,19.7448,VALID,132,VALID,0,
2012-08-16, 03:55:04,VALID,915.275,VALID,0,VALID,97.2138,VALID,0,VALID,19.7448,VALID,136,VALID,0,